Погода в Стрежевом

Россия / Томская область     60°43′58″N   77°36′14″E
темп.,
°C
ветер,
м/с
пор.,
м/с
влажн.,
%
обл.,
%
осадки,
мм/ч
давл.,
гПа
погр.,
м
20 июня, вс
вс2001:00+5зюз1191100 0.1 100510
04:00+4зюз228972 0.0 100426
07:00+7ююз238579 0.0 1003138
10:00+9ююв457798 0.0 1001229
13:00+15ююв56546 0.0 10001120
16:00+16юв554990 0.0 1000934
19:00+17ююв4549100 0.0 1001892
22:00+13в366994 0.2 1003107
21 июня, пн
пн2101:00+9св347965 0.3 100659
04:00+9ссв497782 0.0 1007155
07:00+10св5107880 0.0 1009392
10:00+14св78498 0.0 10111333
13:00+14св5845100 0.0 10122081
16:00+15ссв6846100 0.0 10131861
19:00+15ссв4745100 0.0 10121611
22:00+12с47607 0.0 1012178
22 июня, вт
вт2201:00+8с488114 0.0 1013144
04:00+6с37855 0.0 1012105
07:00+9с36725 0.0 1013220
10:00+14с464994 0.0 10121652
13:00+14с454699 0.1 10121636
16:00+16с3442100 0.0 10121825
19:00+15ссв1354100 0.1 1013271
22:00+12ссв4873100 0.3 1014197
23 июня, ср
ср2301:00+9с3879100 0.3 1014123
04:00+7ссв3681100 0.0 1014104
07:00+10с48714 0.0 1014261
10:00+15с574465 0.0 10141534
13:00+18с5734100 0.0 10132511
16:00+17ссв674099 0.0 10131903
19:00+16с5946100 0.0 1014687
22:00+14с51152100 0.0 1014491
24 июня, чт
чт2401:00+12св4969100 0.1 1015390
04:00+10с497997 0.2 1014298
07:00+10ссв4973100 0.2 1015383
10:00+11с3869100 0.0 1015501
13:00+14св3660100 0.0 1015774
16:00+15ссв2559100 0.0 1015678
19:00+17св345124 0.0 10151368
22:00+15с226482 0.0 101517